Weather History for Concord, NH

Change the Weather History Date:

Friday, July 5, 2013

  Actual Average Record
Temperature  
Mean Temperature 83 °F 69 °F  
Max Temperature 95 °F 82 °F 101 °F (1911)
Min Temperature 70 °F 57 °F 39 °F (1979)
Degree Days  
Heating Degree Days 0 1  
Month to date heating degree days 0 5  
Since 1 June heating degree days 72 90  
Since 1 July heating degree days 0 5  
Cooling Degree Days 18 5  
Month to date cooling degree days 53 25  
Year to date cooling degree days 183 127  
Since 1 June cooling degree days 162 109  
Growing Degree Days 32 (Base 50)    
Moisture  
Dew Point 71 °F    
Average Humidity 70    
Maximum Humidity 93    
Minimum Humidity 46    
Precipitation  
Precipitation T in 0.11 in 2.16 in (1967)
Month to date precipitation 1.46 0.55  
Year to date precipitation 21.00 19.90  
Snow  
Snow 0.00 in 0.00 in 0.00 in (2002)
Month to date snowfall 0.0 0.0  
Since 1 June snowfall 0.0 0.0  
Since 1 July snowfall 0.0 0.0  
Snow Depth 0.00 in    
Sea Level Pressure  
Sea Level Pressure 30.09 in    
Wind  
Wind Speed 5 mph (WSW)    
Max Wind Speed 15 mph    
Max Gust Speed 22 mph    
Visibility 10 miles    
Events      
T = Trace of Precipitation, MM = Missing Value Source: NWS Daily Summary

Daily Weather History Graph

Daily Weather History Graph

Search for Another Location

Airport:

Trip Planner

Search our weather history database for the weather conditions in past years. The results will help you decide how hot, cold, wet, or windy it might be!

Date:

Astronomy

Jul. 05, 2013 Rise Set
Actual Time 5:12 AM EDT 8:28 PM EDT
Civil Twilight 4:37 AM EDT 9:03 PM EDT
Nautical Twilight 3:51 AM EDT 9:48 PM EDT
Astronomical Twilight 2:56 AM EDT 10:44 PM EDT
Moon 3:11 AM EDT (7/5) 6:19 PM EDT (7/5)
Length of Visible Light 16h 26m
Length of Day
15h 16m
Waning Crescent, 6% of the Moon is Illuminated
Jul 5
Waning Crescent
Jul 8
New
Jul 15
First Quarter
Jul 22
Full
Jul 29
Last Quarter

Hourly Weather History & Observations

Time (EDT) Temp. Heat Index Dew Point Humidity Pressure Visibility Wind Dir Wind Speed Gust Speed Precip Events Conditions
12:51 AM 73.0 °F - 71.1 °F 93% 30.11 in 10.0 mi Calm Calm - N/A   Clear
1:51 AM 75.0 °F - 70.0 °F 84% 30.11 in 10.0 mi Calm Calm - N/A   Clear
2:51 AM 75.0 °F - 70.0 °F 84% 30.11 in 10.0 mi Calm Calm - N/A   Clear
3:51 AM 72.0 °F - 70.0 °F 93% 30.12 in 10.0 mi Calm Calm - N/A   Clear
4:51 AM 71.1 °F - 70.0 °F 96% 30.12 in 10.0 mi Calm Calm - N/A   Clear
5:51 AM 71.1 °F - 70.0 °F 96% 30.14 in 9.0 mi Calm Calm - N/A   Clear
6:51 AM 75.0 °F - 71.1 °F 87% 30.14 in 10.0 mi Calm Calm - N/A   Clear
7:51 AM 79.0 °F - 72.0 °F 79% 30.14 in 10.0 mi Calm Calm - N/A   Clear
8:35 AM 82.4 °F 87.2 °F 71.6 °F 70% 30.15 in 10.0 mi Variable 3.5 mph - N/A   Partly Cloudy
8:51 AM 82.0 °F 86.7 °F 72.0 °F 71% 30.14 in 10.0 mi SW 4.6 mph - N/A   Clear
9:51 AM 86.0 °F 92.2 °F 72.0 °F 63% 30.13 in 10.0 mi WSW 8.1 mph - N/A   Clear
10:51 AM 88.0 °F 93.8 °F 71.1 °F 57% 30.12 in 10.0 mi West 8.1 mph - N/A   Clear
11:51 AM 90.0 °F 95.4 °F 70.0 °F 52% 30.11 in 10.0 mi SSW 9.2 mph - N/A   Partly Cloudy
12:51 PM 91.9 °F 98.4 °F 71.1 °F 50% 30.09 in 10.0 mi SW 9.2 mph - N/A   Scattered Clouds
1:51 PM 91.9 °F 98.4 °F 71.1 °F 50% 30.07 in 10.0 mi South 11.5 mph - N/A   Partly Cloudy
2:51 PM 93.9 °F 100.3 °F 70.0 °F 46% 30.06 in 10.0 mi West 9.2 mph - N/A   Partly Cloudy
3:51 PM 93.0 °F 97.9 °F 69.1 °F 45% 30.04 in 10.0 mi WSW 9.2 mph - N/A   Partly Cloudy
4:51 PM 93.0 °F 97.9 °F 69.1 °F 45% 30.03 in 10.0 mi WSW 5.8 mph - N/A   Clear
5:51 PM 91.9 °F 98.4 °F 71.1 °F 50% 30.02 in 10.0 mi WSW 8.1 mph - N/A   Clear
6:51 PM 89.1 °F 95.0 °F 71.1 °F 55% 30.03 in 10.0 mi SW 5.8 mph - N/A   Clear
7:51 PM 84.0 °F 89.0 °F 71.1 °F 65% 30.02 in 10.0 mi SW 3.5 mph - N/A   Clear
8:51 PM 82.0 °F 85.9 °F 70.0 °F 67% 30.03 in 10.0 mi SW 4.6 mph - N/A   Clear
9:51 PM 81.0 °F 84.9 °F 71.1 °F 72% 30.05 in 10.0 mi WSW 3.5 mph - N/A   Clear
10:51 PM 79.0 °F - 72.0 °F 79% 30.04 in 10.0 mi WNW 4.6 mph - 0.00 in   Scattered Clouds
11:51 PM 78.1 °F - 71.1 °F 79% 30.05 in 10.0 mi WNW 3.5 mph - N/A   Clear